Location: Newark
(27.9675°N, 86.8869°E)
Time: 04:46:50
(UTC+00:00)

deb Explorer IX - Pass Details

Date: 25 October 2019
Orbit: 546 x 1105 km, 38.8° (Epoch: 17 November)

Event Time Altitude Azimuth Distance (km) Brightness Sun altitude
Rises 02:42:33 0° 199° (SSW) 2,688 ? 28.4°
Reaches altitude 10° 02:45:27 10° 176° (S) 1,820 ? 28.9°
Maximum altitude 02:48:00 16° 138° (SE) 1,514 ? 29.4°
Drops below altitude 10° 02:50:40 10° 100° (E) 1,916 ? 29.8°
Sets 02:53:50 0° 78° (ENE) 2,909 ? 30.4°
